Location: *
(33.9167°S, 18.4167°E)
Time: 13:38:20
(UTC+00:00)

Daily predictions for brighter satellites

Satellite Brightness Start Highest point End
(mag) Time Altitude Azimuth Time Altitude Azimuth Time Altitude Azimuth
Cosmos 1953 Rocket 3.8 16:16:11 10° S 16:20:37 49° E 16:24:59 10° NNE
SMAP 4.1 16:16:50 10° SE 16:20:47 26° E 16:24:41 10° NNE
PSLV R/B 4.2 16:20:37 10° SW 16:22:58 23° SSE 16:25:18 10° ESE
ALOS 2.3 16:18:34 10° SSE 16:23:18 72° E 16:27:59 10° N
Meteor 1-21 Rocket 4.4 16:19:00 10° S 16:24:57 63° E 16:30:49 10° NNE
Cosmos 1484 Rocket 4.1 16:21:27 10° S 16:25:07 41° WSW 16:28:42 10° NW
IRS-1C Rocket 4.2 16:22:43 10° SSE 16:28:00 60° ENE 16:33:12 10° N
Cosmos 2228 3.3 16:26:26 10° N 16:30:45 76° W 16:35:11 10° S
BREEZE-M R/B 4.3 16:24:34 10° SW 16:30:50 85° SE 16:38:04 10° NE
Cosmos 2058 Rocket 3.1 16:26:53 10° N 16:31:22 68° E 16:35:55 10° SSE
Radarsat Rocket 4.3 16:24:54 10° SSE 16:32:15 78° ENE 16:38:39 10° N
CRYOSAT 2 4.3 16:28:14 10° NNE 16:33:05 71° E 16:38:00 10° S
Cosmos 1174 2.9 16:33:26 10° NNW 16:36:23 79° ENE 16:39:26 10° SSE
Okean-O 3.4 16:32:41 10° SE 16:36:44 32° E 16:40:43 10° NNE
Cosmos 1726 2.4 16:45:52 10° NNE 16:49:29 46° E 16:53:09 10° SSE
Cosmos 1703 3.9 16:53:58 10° SSE 16:57:41 35° E 17:01:22 10° NNE
NOSS 3-1 (C) 3.7 16:54:41 10° SSW 17:00:25 38° SE 17:05:31 10° ENE
Cosmos 2061 Rocket 4.1 16:57:12 10° S 17:03:35 60° E 17:09:48 10° NNE
Envisat 4.1 17:01:38 18° ESE 17:03:44 24° E 17:07:46 10° NNE
Cosmos 1802 Rocket 4.0 16:58:10 10° S 17:04:35 68° E 17:10:59 10° NNE
Cosmos 1812 Rocket 3.9 17:01:16 10° NNE 17:05:21 41° E 17:09:22 11° SSE
Meteor 2-10 4.1 17:01:02 10° N 17:06:39 74° E 17:12:10 10° SSE
GPS 2-04 Rocket1 2.9 17:05:45 10° W 17:10:01 73° S 17:12:09 28° ESE
COSMOS 2487 3.4 17:08:08 10° NNW 17:11:31 47° WSW 17:14:58 10° S
Meteor 1-11 4.3 17:07:36 10° S 17:13:12 56° E 17:18:48 10° NNE
Atlas Centaur 2 2.9 17:07:14 10° W 17:13:33 65° N 17:19:30 18° ENE
Cosmos 2360 Rocket 2.9 17:11:46 10° S 17:16:44 30° ESE 17:18:33 25° E
YAOGAN 3 4.5 17:14:57 10° SSE 17:19:24 79° ENE 17:23:46 10° N
YAOGAN 1 3.7 17:24:34 25° ENE 17:24:34 25° ENE 17:27:16 10° NNE
CZ-4 R/B 1.8 17:24:41 38° E 17:25:11 40° E 17:29:07 10° N
CZ-3 Stage 3 3.6 16:54:31 10° W 17:30:35 77° N 17:34:36 29° E
Cosmos 1864 Rocket 4.3 17:24:47 10° S 17:31:00 72° E 17:37:07 10° NNE
Aureole 1 Rocket 3.2 17:29:19 10° SSW 17:31:12 34° S 17:31:12 34° S
SL-08 R/B 4.4 17:27:22 10° S 17:33:46 82° E 17:39:58 10° N
H-2A R/B 3.2 17:30:27 10° S 17:34:17 60° WSW 17:38:07 10° NNW
NOAA 12 4.0 17:30:39 10° SSE 17:36:02 80° ENE 17:41:22 10° N
USA 229 DEB 3.6 17:29:56 10° SSW 17:36:48 89° WNW 17:43:21 10° NNE
USA 229 3.6 17:30:03 10° SSW 17:36:53 90° SW 17:43:27 10° NNE
NOSS 3-1 (A) 3.4 17:35:24 10° SSW 17:41:22 49° SE 17:42:23 44° E
SL-24 DEB 4.5 17:39:10 10° N 17:43:46 69° W 17:48:28 10° S
USA 234 3.2 17:40:37 32° SE 17:43:56 75° NE 17:50:30 10° NW
Cosmos 1624 Rocket 4.3 17:41:20 10° N 17:45:45 44° ENE 17:45:45 44° ENE
Cosmos 2322 Rocket 2.5 17:41:35 10° SSW 17:47:15 68° WNW 17:52:53 10° N
OAO 2 Rocket 4.0 17:42:38 10° NW 17:47:17 38° NNE 17:47:43 37° NE
OAO 1 Rocket 4.4 17:42:27 10° W 17:47:53 81° S 17:48:58 58° E
SL-16 R/B 3.0 17:47:35 10° SSW 17:53:07 51° WNW 17:58:34 10° N
Meteor 2-1 Rocket 4.2 17:47:33 10° N 17:53:07 58° E 17:53:32 56° ESE
Cosmos 2251 Rocket 4.2 17:48:49 10° SSW 17:54:06 56° WNW 17:59:17 10° N
Cosmos 1371 Rocket 3.9 17:50:50 10° N 17:56:10 70° ENE 17:56:38 65° ESE
CZ-4 R/B 4.5 17:58:23 77° W 17:58:23 77° W 18:02:30 10° NNW
Sakura Rocket 4.2 17:59:11 10° WNW 18:03:01 35° N 18:03:28 34° N
CZ-4C R/B 3.2 17:54:51 10° NW 18:03:03 67° WSW 18:07:31 27° SSE
Timation 2 Rocket 4.3 18:09:33 10° NW 18:15:27 59° WSW 18:17:48 36° S
ATLAS CENTAUR R/B 4.1 18:11:33 10° SW 18:18:17 82° SE 18:38:21 10° NE
CSL-04 Rocket 4.5 18:35:06 45° SW 18:35:57 49° WSW 18:41:12 10° NW
ADEOS Rocket 4.3 18:40:59 31° SSW 18:40:59 31° SSW 18:44:13 10° SSW
Cosmos 2360 Rocket 3.7 18:55:39 10° SW 19:00:31 32° W 19:00:31 32° W
Atlas Centaur 2 3.6 18:56:06 10° W 19:02:07 44° NW 19:02:07 44° NW
H-2A R/B 4.3 18:00:02 10° WNW 19:29:38 63° N 19:29:38 63° N
